77P/Longmore (2023)

Japanese version
Home page
Updated on May 29, 2022

---------------------------------------------------------------------

* Profile

* Pictures

* Orbital Elements

Epoch 2022 Jan. 21.0 TT = JDT 2459600.5
T 2023 Apr. 3.28688 TT                                  Rudenko
q   2.3480320            (2000.0)            P               Q
n   0.14292484     Peri.  196.79131     -0.85859075     +0.50179279
a   3.6229659      Node    14.77281     -0.41019727     -0.54956485
e   0.3519034      Incl.   24.31815     -0.30750629     -0.66796892
P   6.90
From 1931 observations 1975 Aug. 11-2022 Jan. 30, mean residual 0".8.
     Nongravitational parameters A1 = +0.15, A2 = -0.0488.

* Finding Charts

* Magnitudes Graph

        H = 14.0  G = 0.15               [    ,-427]  (             - 2022 Jan. 31)
        m1 = 4.0 + 5 log d + 25.0 log r  [-427, 445]  (2022 Jan. 31 - 2024 June 21)
        H = 14.0  G = 0.15               [ 445,    ]  (2024 June 21 -             )

---------------------------------------------------------------------

The orbital elements are published on M.P.E.C. 2022-C56.
The charts are made with StellaNavigator Ver.10 (AstroArts).
The magnitudes graphs are made with Comet for Windows.

---------------------------------------------------------------------

Copyright(C) Seiichi Yoshida (comet@aerith.net). All rights reserved.